{"data":{"norad_id":58899,"epoch":"2026-05-25T03:15:34.251840Z","epoch_age_seconds":73984,"freshness":"FRESH","line1":"1 58899U 24022A   26145.13581310  .00016719  00000+0  43200-3 0  9994","line2":"2 58899  97.4140 354.8598 0008760 190.3600 169.7467 15.39155496128726","mean_motion":15.39155496,"eccentricity":0.000876,"inclination_deg":97.414,"raan_deg":354.8598,"arg_perigee_deg":190.36,"mean_anomaly_deg":169.7467,"bstar":0.000432,"rev_number":12872,"period_min":93.55779865922,"perigee_km":442.62508229552,"apogee_km":454.58553482012,"semimajor_km":6826.7423085578,"source":"CELESTRAK","updated_at":"2026-05-25T13:38:13.534072Z"}}